Location: Newark
(45.9456°N, 15.4064°E)
Time: 15:19:56
(UTC+00:00)

Courier 1B Rocket - Pass Details

Date: 18 January 2020
Orbit: 920 x 1202 km, 28.2° (Epoch: 16 February)

Event Time Altitude Azimuth Distance (km) Brightness Sun altitude
Rises 16:05:57 0° 241° (WSW) 3,573 10.9 -4.4°
Reaches altitude 10° 16:09:58 10° 216° (SW) 2,607 8.4 -5.0°
Maximum altitude 16:12:58 14° 187° (S) 2,332 7.5 -5.5°
Drops below altitude 10° 16:15:58 10° 158° (SSE) 2,605 7.3 -6.0°
Sets 16:19:59 0° 134° (SE) 3,566 7.7 -6.6°
